When you browse on this site, cookies collect data to enhance your experience and personalize the content and advertising you see.
Visit our Privacy Policy to learn more. By continuing to use the site, you agree to this use of cookies and data.

Hourly Weather San Fernando de Apure

Today, 10 July, Friday

Time Temperature Precipitation Wind Pressure Humidity
00:00 +25°C° 0 mm 1 mps 754 mmHg 93%
01:00 +25°C° 0 mm 1 mps 754 mmHg 94%
02:00 +25°C° 0 mm 1 mps 754 mmHg 94%
03:00 +25°C° 0 mm 1 mps 754 mmHg 95%
04:00 +25°C° 0 mm 2 mps 754 mmHg 95%
05:00 +24°C° 0 mm 2 mps 754 mmHg 95%
06:00 +25°C° 0 mm 2 mps 754 mmHg 93%
07:00 +26°C° 0 mm 3 mps 755 mmHg 91%
08:00 +26°C° 0 mm 3 mps 755 mmHg 89%
09:00 +28°C° 0.1 mm 3 mps 755 mmHg 86%
10:00 +29°C° 0.1 mm 3 mps 755 mmHg 82%
11:00 +30°C° 0.1 mm 3 mps 755 mmHg 78%
12:00 +31°C° 0.5 mm 3 mps 755 mmHg 76%
13:00 +31°C° 0.5 mm 3 mps 754 mmHg 75%
14:00 +32°C° 0.5 mm 2 mps 753 mmHg 74%
15:00 +31°C° 0.1 mm 2 mps 753 mmHg 75%
16:00 +31°C° 0.1 mm 2 mps 752 mmHg 76%
17:00 +31°C° 0.1 mm 2 mps 752 mmHg 78%
18:00 +30°C° 0 mm 2 mps 752 mmHg 82%
19:00 +29°C° 0 mm 1 mps 753 mmHg 85%
20:00 +27°C° 0 mm 1 mps 753 mmHg 89%
21:00 +27°C° 0.1 mm 1 mps 754 mmHg 90%
22:00 +27°C° 0.1 mm 1 mps 754 mmHg 91%
23:00 +26°C° 0.1 mm 1 mps 755 mmHg 92%

Tomorrow, 11 July, Saturday

Time Temperature Precipitation Wind Pressure Humidity
00:00 +26°C° 0.6 mm 1 mps 754 mmHg 93%
01:00 +26°C° 0.6 mm 2 mps 754 mmHg 94%
02:00 +25°C° 0.6 mm 2 mps 754 mmHg 95%
03:00 +25°C° 0.3 mm 2 mps 754 mmHg 96%
04:00 +25°C° 0.3 mm 2 mps 754 mmHg 96%
05:00 +25°C° 0.3 mm 2 mps 754 mmHg 97%
06:00 +25°C° 0.2 mm 2 mps 754 mmHg 96%
07:00 +26°C° 0.2 mm 2 mps 754 mmHg 96%
08:00 +26°C° 0.2 mm 2 mps 755 mmHg 95%
09:00 +27°C° 0.2 mm 2 mps 755 mmHg 91%
10:00 +28°C° 0.2 mm 3 mps 755 mmHg 87%
11:00 +30°C° 0.2 mm 3 mps 755 mmHg 83%
12:00 +30°C° 1.7 mm 3 mps 754 mmHg 83%
13:00 +30°C° 1.7 mm 2 mps 754 mmHg 84%
14:00 +30°C° 1.7 mm 2 mps 753 mmHg 84%
15:00 +30°C° 2.4 mm 2 mps 752 mmHg 87%
16:00 +29°C° 2.4 mm 2 mps 752 mmHg 89%
17:00 +29°C° 2.4 mm 2 mps 751 mmHg 92%
18:00 +28°C° 0.2 mm 1 mps 752 mmHg 93%
19:00 +27°C° 0.2 mm 1 mps 752 mmHg 94%
20:00 +26°C° 0.2 mm 1 mps 753 mmHg 95%
21:00 +26°C° 0.4 mm 1 mps 753 mmHg 95%
22:00 +26°C° 0.4 mm 1 mps 754 mmHg 95%
23:00 +26°C° 0.4 mm 1 mps 755 mmHg 96%

Day after tomorrow, 12 July, Sunday

Time Temperature Precipitation Wind Pressure Humidity
00:00 +25°C° 0.6 mm 1 mps 754 mmHg 96%
01:00 +25°C° 0.6 mm 1 mps 754 mmHg 97%
02:00 +25°C° 0.6 mm 1 mps 754 mmHg 98%
03:00 +25°C° 0.1 mm 1 mps 754 mmHg 98%
04:00 +25°C° 0.1 mm 1 mps 754 mmHg 98%
05:00 +25°C° 0.1 mm 1 mps 754 mmHg 98%
06:00 +25°C° 0.7 mm 1 mps 754 mmHg 98%
07:00 +25°C° 0.7 mm 1 mps 755 mmHg 98%
08:00 +25°C° 0.7 mm 1 mps 755 mmHg 98%
09:00 +26°C° 0.2 mm 1 mps 755 mmHg 95%
10:00 +28°C° 0.2 mm 1 mps 755 mmHg 91%
11:00 +29°C° 0.2 mm 1 mps 755 mmHg 87%
12:00 +30°C° 0.2 mm 1 mps 755 mmHg 83%
13:00 +31°C° 0.2 mm 1 mps 754 mmHg 78%
14:00 +32°C° 0.2 mm 1 mps 753 mmHg 73%
15:00 +31°C° 0.3 mm 1 mps 753 mmHg 77%
16:00 +31°C° 0.3 mm 1 mps 752 mmHg 81%
17:00 +30°C° 0.3 mm 1 mps 752 mmHg 85%
18:00 +29°C° 0.5 mm 1 mps 752 mmHg 88%
19:00 +28°C° 0.5 mm 1 mps 753 mmHg 91%
20:00 +25°C° 0.5 mm 0 mps 753 mmHg 93%
21:00 +24°C° 1.7 mm 0 mps 754 mmHg 94%
22:00 +26°C° 1.7 mm 1 mps 754 mmHg 95%
23:00 +26°C° 1.7 mm 1 mps 755 mmHg 96%

13 July, Monday

Time Temperature Precipitation Wind Pressure Humidity
00:00 +25°C° 2.5 mm 1 mps 754 mmHg 96%
01:00 +25°C° 2.5 mm 1 mps 754 mmHg 97%
02:00 +25°C° 2.5 mm 1 mps 753 mmHg 97%
03:00 +25°C° 2 mm 1 mps 754 mmHg 97%
04:00 +25°C° 2 mm 1 mps 754 mmHg 97%
05:00 +24°C° 2 mm 1 mps 754 mmHg 97%
06:00 +25°C° 0.7 mm 1 mps 754 mmHg 97%
07:00 +25°C° 0.7 mm 1 mps 755 mmHg 97%
08:00 +25°C° 0.7 mm 1 mps 755 mmHg 97%
09:00 +26°C° 0.6 mm 2 mps 755 mmHg 94%
10:00 +28°C° 0.6 mm 2 mps 755 mmHg 92%
11:00 +29°C° 0.6 mm 3 mps 755 mmHg 89%
12:00 +29°C° 1.1 mm 3 mps 755 mmHg 86%
13:00 +30°C° 1.1 mm 3 mps 754 mmHg 83%
14:00 +31°C° 1.1 mm 2 mps 753 mmHg 80%
15:00 +30°C° 0.9 mm 2 mps 753 mmHg 82%
16:00 +30°C° 0.9 mm 1 mps 753 mmHg 85%
17:00 +30°C° 0.9 mm 1 mps 752 mmHg 88%
18:00 +29°C° 1.3 mm 1 mps 753 mmHg 90%
19:00 +28°C° 1.3 mm 1 mps 753 mmHg 92%
20:00 +26°C° 1.3 mm 1 mps 754 mmHg 94%
21:00 +26°C° 2.5 mm 1 mps 754 mmHg 95%
22:00 +25°C° 2.5 mm 1 mps 755 mmHg 97%
23:00 +25°C° 2.5 mm 1 mps 755 mmHg 99%

14 July, Tuesday

Time Temperature Precipitation Wind Pressure Humidity
00:00 +25°C° 4.8 mm 1 mps 755 mmHg 99%
01:00 +25°C° 4.8 mm 1 mps 755 mmHg 99%
02:00 +25°C° 4.8 mm 1 mps 754 mmHg 99%
03:00 +25°C° 3.1 mm 1 mps 754 mmHg 99%
04:00 +25°C° 3.1 mm 1 mps 754 mmHg 99%
05:00 +23°C° 3.1 mm 0 mps 754 mmHg 99%
06:00 +25°C° 1.3 mm 1 mps 755 mmHg 99%
07:00 +25°C° 1.3 mm 1 mps 756 mmHg 98%
08:00 +25°C° 1.3 mm 1 mps 756 mmHg 98%
09:00 +25°C° 0.8 mm 1 mps 756 mmHg 97%
10:00 +26°C° 0.8 mm 1 mps 757 mmHg 96%
11:00 +26°C° 0.8 mm 1 mps 757 mmHg 95%
12:00 +27°C° 1.3 mm 1 mps 756 mmHg 95%
13:00 +27°C° 1.3 mm 1 mps 756 mmHg 94%
14:00 +27°C° 1.3 mm 1 mps 755 mmHg 93%
15:00 +28°C° 0.7 mm 1 mps 755 mmHg 92%
16:00 +28°C° 0.7 mm 1 mps 754 mmHg 91%
17:00 +28°C° 0.7 mm 1 mps 754 mmHg 91%
18:00 +27°C° 0.6 mm 1 mps 754 mmHg 93%
19:00 +26°C° 0.6 mm 1 mps 754 mmHg 95%
20:00 +26°C° 0.6 mm 1 mps 755 mmHg 97%
21:00 +23°C° 0 mm 0 mps 755 mmHg 97%
22:00 +23°C° 0 mm 0 mps 755 mmHg 97%
23:00 +23°C° 0 mm 0 mps 755 mmHg 98%

15 July, Wednesday

Time Temperature Precipitation Wind Pressure Humidity
00:00 +23°C° 0 mm 0 mps 755 mmHg 98%
01:00 +23°C° 0 mm 0 mps 755 mmHg 98%
02:00 +23°C° 0 mm 0 mps 754 mmHg 98%
03:00 +23°C° 0 mm 0 mps 754 mmHg 98%
04:00 +23°C° 0 mm 0 mps 754 mmHg 98%
05:00 +22°C° 0 mm 0 mps 754 mmHg 98%
06:00 +23°C° 0.3 mm 0 mps 755 mmHg 98%
07:00 +23°C° 0.3 mm 0 mps 755 mmHg 98%
08:00 +23°C° 0.3 mm 0 mps 756 mmHg 97%
09:00 +24°C° 0.4 mm 0 mps 756 mmHg 96%
10:00 +24°C° 0.4 mm 0 mps 756 mmHg 95%
11:00 +25°C° 0.4 mm 0 mps 756 mmHg 94%
12:00 +25°C° 0.7 mm 0 mps 755 mmHg 94%
13:00 +25°C° 0.7 mm 0 mps 755 mmHg 94%
14:00 +25°C° 0.7 mm 0 mps 754 mmHg 94%
15:00 +25°C° 0.8 mm 0 mps 754 mmHg 93%
16:00 +26°C° 0.8 mm 0 mps 753 mmHg 92%
17:00 +26°C° 0.8 mm 0 mps 753 mmHg 91%
18:00 +25°C° 0.3 mm 0 mps 753 mmHg 93%
19:00 +24°C° 0.3 mm 0 mps 753 mmHg 94%
20:00 +23°C° 0.3 mm 0 mps 753 mmHg 96%
21:00 +23°C° 0 mm 0 mps 754 mmHg 96%
22:00 +23°C° 0 mm 0 mps 754 mmHg 96%
23:00 +23°C° 0 mm 0 mps 755 mmHg 96%
Show more